MTN9905 TJSJ-TFFR

Flight info

Callsign MTN9905
Flight time N/A
Altitude 7000
Route SJU RTE2 COY R888 MODUX DCT PPR
Aircraft C208/L-SDFGR/C

Departure

Time N/A
Airport Luis Munoz Marin International Airport (TJSJ)

Arrival

Time 2026-05-01 07:39
Airport Maryse Condé International Airport (TFFR)
Time Latitude Longitude Altitude Speed Heading
2026-05-01 07:23 16.38455 -62.00894 9776 ft 130 kts 121°
2026-05-01 07:23 16.37523 -61.99288 9458 ft 125 kts 121°
2026-05-01 07:24 16.37087 -61.98539 9436 ft 117 kts 121°
2026-05-01 07:24 16.36668 -61.97824 9406 ft 115 kts 121°
2026-05-01 07:24 16.36259 -61.97124 9389 ft 111 kts 121°
2026-05-01 07:24 16.35860 -61.96439 9372 ft 112 kts 121°
2026-05-01 07:25 16.35424 -61.95681 9416 ft 131 kts 121°
2026-05-01 07:25 16.34921 -61.94817 9439 ft 149 kts 121°
2026-05-01 07:25 16.34348 -61.93843 9255 ft 164 kts 121°
2026-05-01 07:25 16.33821 -61.92804 9021 ft 159 kts 106°
2026-05-01 07:26 16.33627 -61.91703 8738 ft 151 kts 100°
2026-05-01 07:26 16.33442 -61.90644 8436 ft 147 kts 101°
2026-05-01 07:26 16.33251 -61.89600 8144 ft 146 kts 102°
2026-05-01 07:26 16.33063 -61.88567 7850 ft 145 kts 101°
2026-05-01 07:27 16.32875 -61.87540 7577 ft 143 kts 102°
2026-05-01 07:27 16.32691 -61.86540 7338 ft 139 kts 102°
2026-05-01 07:27 16.32512 -61.85563 7099 ft 136 kts 102°
2026-05-01 07:27 16.32335 -61.84597 6862 ft 135 kts 102°
2026-05-01 07:28 16.32159 -61.83639 6628 ft 134 kts 102°
2026-05-01 07:28 16.31984 -61.82687 6397 ft 134 kts 102°
2026-05-01 07:28 16.31810 -61.81741 6133 ft 134 kts 102°
2026-05-01 07:28 16.31634 -61.80790 5852 ft 129 kts 102°
2026-05-01 07:29 16.31469 -61.79899 5568 ft 124 kts 101°
2026-05-01 07:29 16.31309 -61.79028 5310 ft 121 kts 102°
2026-05-01 07:29 16.31153 -61.78177 5117 ft 120 kts 102°
2026-05-01 07:29 16.30995 -61.77312 4906 ft 121 kts 102°
2026-05-01 07:30 16.30841 -61.76462 4721 ft 120 kts 101°
2026-05-01 07:30 16.30705 -61.75608 4490 ft 119 kts 100°
2026-05-01 07:30 16.30585 -61.74769 4252 ft 117 kts 99°
2026-05-01 07:30 16.30483 -61.73926 4000 ft 116 kts 97°
2026-05-01 07:31 16.30403 -61.73111 3770 ft 106 kts 96°
2026-05-01 07:31 16.30274 -61.70981 3030 ft 94 kts 92°
2026-05-01 07:32 16.30211 -61.69609 2538 ft 93 kts 92°
2026-05-01 07:32 16.30192 -61.68933 2292 ft 93 kts 90°
2026-05-01 07:33 16.29833 -61.67662 1795 ft 91 kts 103°
2026-05-01 07:33 16.29664 -61.67029 1561 ft 90 kts 102°
2026-05-01 07:33 16.29295 -61.65932 1478 ft 86 kts 105°
2026-05-01 07:34 16.29102 -61.65309 1548 ft 82 kts 107°
2026-05-01 07:34 16.28689 -61.64296 1584 ft 83 kts 104°
2026-05-01 07:34 16.28521 -61.63695 1561 ft 87 kts 97°
2026-05-01 07:35 16.28405 -61.63090 1642 ft 84 kts 97°
2026-05-01 07:35 16.28277 -61.62478 1635 ft 90 kts 99°
2026-05-01 07:35 16.28184 -61.61853 1545 ft 86 kts 97°
2026-05-01 07:35 16.28040 -61.61236 1417 ft 89 kts 99°
2026-05-01 07:36 16.27913 -61.60605 1374 ft 88 kts 99°
2026-05-01 07:36 16.27772 -61.59985 1374 ft 86 kts 98°
2026-05-01 07:36 16.27663 -61.59367 1268 ft 87 kts 97°
2026-05-01 07:36 16.27577 -61.58786 1043 ft 76 kts 99°
2026-05-01 07:37 16.27381 -61.57630 796 ft 94 kts 103°
2026-05-01 07:37 16.27249 -61.56952 662 ft 97 kts 107°
2026-05-01 07:37 16.27094 -61.56281 513 ft 91 kts 99°
2026-05-01 07:38 16.27004 -61.55669 314 ft 81 kts 101°
2026-05-01 07:38 16.26900 -61.55134 161 ft 74 kts 102°
2026-05-01 07:38 16.26704 -61.54082 25 ft 65 kts 100°
2026-05-01 07:39 16.26624 -61.53684 26 ft 45 kts 102°
2026-05-01 07:39 16.26570 -61.53403 27 ft 37 kts 101°
2026-05-01 07:39 16.26522 -61.52998 28 ft 15 kts 41°
2026-05-01 07:40 16.26659 -61.52966 30 ft 21 kts
2026-05-01 07:40 16.26797 -61.52937 30 ft 15 kts
2026-05-01 07:40 16.26838 -61.52830 31 ft 23 kts 105°
2026-05-01 07:40 16.26806 -61.52642 32 ft 30 kts 99°
2026-05-01 07:41 16.26765 -61.52418 35 ft 30 kts 102°
2026-05-01 07:41 16.26732 -61.52233 36 ft 7 kts 84°
2026-05-01 07:41 16.26839 -61.52219 36 ft 0 kts 10°